FW4298 Weather Reports


Display with metric or nautical units.
time (UTC)temp
F
wind
direction
speed
MPH
gust
MPH
rain 1hr
in
rain 24hr
in
rain mn
in
humidity
%
barometer
mb
20260506123905 73 114 0.0 2.0 0.00 0.00 0.00 98 1011.0
20260506123406 73 169 0.0 0.0 0.00 0.00 0.00 98 1010.9
20260506122907 72 169 0.0 0.0 0.00 0.00 0.00 98 1011.0
20260506122635 72 169 0.0 1.0 0.00 0.00 0.00 97 1010.9
20260506121904 72 169 0.0 1.0 0.00 0.00 0.00 97 1010.8
20260506121417 72 169 0.0 1.0 0.00 0.00 0.00 97 1010.7
20260506120916 72 169 0.0 1.0 0.00 0.00 0.00 97 1010.7
20260506120406 73 169 0.0 1.0 0.00 0.00 0.00 97 1010.7
20260506120123 73 169 0.0 3.0 0.00 0.00 0.00 97 1010.6
20260506115404 73 169 1.0 3.0 0.00 0.00 0.00 97 1010.6
20260506115123 73 169 1.0 4.0 0.00 0.00 0.00 97 1010.6
20260506114653 73 169 1.0 4.0 0.00 0.00 0.00 97 1010.6
20260506113900 73 169 1.0 4.0 0.00 0.00 0.00 97 1010.5
20260506113400 73 173 1.0 2.0 0.00 0.00 0.00 97 1010.6
20260506112858 73 173 2.0 5.0 0.00 0.00 0.00 97 1010.6
20260506112356 73 173 2.0 5.0 0.00 0.00 0.00 97 1010.6
20260506112332 73 179 2.0 6.0 0.00 0.00 0.00 97 1010.7
20260506111354 74 172 2.0 6.0 0.00 0.00 0.00 97 1010.9
20260506110847 74 166 2.0 4.0 0.00 0.00 0.00 97 1010.9
20260506110348 74 194 1.0 3.0 0.00 0.00 0.00 97 1011.0
20260506105848 74 195 0.0 3.0 0.00 0.00 0.00 97 1011.1
20260506105347 74 195 0.0 3.0 0.00 0.00 0.00 96 1011.1
20260506104845 74 195 1.0 3.0 0.00 0.00 0.00 96 1011.0
20260506104346 74 195 1.0 3.0 0.00 0.00 0.00 97 1011.0
20260506103844 74 194 1.0 3.0 0.00 0.00 0.00 96 1010.9
20260506103341 74 194 2.0 4.0 0.00 0.00 0.00 96 1011.0
20260506102842 74 178 1.0 4.0 0.00 0.00 0.00 96 1010.9
20260506102341 74 162 1.0 5.0 0.00 0.00 0.00 96 1010.9
20260506101841 74 160 1.0 5.0 0.00 0.00 0.00 95 1010.8
20260506101339 74 157 1.0 5.0 0.00 0.00 0.00 95 1010.7
20260506101106 74 156 2.0 5.0 0.00 0.00 0.00 95 1010.7
20260506100337 74 149 2.0 6.0 0.00 0.00 0.00 95 1010.5
20260506095838 74 182 2.0 6.0 0.00 0.00 0.00 95 1010.4
20260506095338 74 158 2.0 5.0 0.00 0.00 0.00 95 1010.5
20260506094837 74 157 2.0 5.0 0.00 0.00 0.00 95 1010.4
20260506094338 74 156 2.0 5.0 0.00 0.00 0.00 94 1010.4
20260506093837 74 144 2.0 5.0 0.00 0.00 0.00 94 1010.4
20260506093338 74 150 3.0 5.0 0.00 0.00 0.00 94 1010.3
20260506092838 74 167 3.0 5.0 0.00 0.00 0.00 94 1010.3
20260506092338 74 166 3.0 5.0 0.00 0.00 0.00 94 1010.1
20260506091837 75 159 3.0 8.0 0.00 0.00 0.00 93 1009.9
20260506091605 75 168 3.0 8.0 0.00 0.00 0.00 93 1010.0
20260506091102 75 172 3.0 8.0 0.00 0.00 0.00 93 1009.9
20260506090338 75 209 3.0 8.0 0.00 0.00 0.00 93 1009.8
20260506085837 75 155 3.0 8.0 0.00 0.00 0.00 93 1009.8
20260506085338 75 163 4.0 9.0 0.00 0.00 0.00 93 1009.6
20260506084837 75 155 5.0 12.0 0.00 0.00 0.00 93 1009.4
20260506084815 75 175 5.0 12.0 0.00 0.00 0.00 93 1009.4
20260506083838 75 171 5.0 11.0 0.00 0.00 0.00 93 1009.4
20260506083337 75 191 5.0 9.0 0.00 0.00 0.00 93 1009.6
20260506082835 75 148 5.0 13.0 0.00 0.00 0.00 93 1009.8
20260506082335 75 206 5.0 13.0 0.00 0.00 0.00 93 1009.6
20260506081835 75 201 5.0 10.0 0.00 0.00 0.00 93 1009.6
20260506081333 75 198 5.0 13.0 0.00 0.00 0.00 93 1009.5
20260506080832 75 190 6.0 14.0 0.00 0.00 0.00 93 1009.5
20260506080332 75 175 6.0 14.0 0.00 0.00 0.00 92 1009.5
20260506073326 75 199 5.0 16.0 0.00 0.00 0.00 93 1009.9
20260506072823 75 169 5.0 16.0 0.00 0.00 0.00 93 1009.9
20260506072322 75 186 6.0 16.0 0.00 0.00 0.00 93 1010.1
20260506071819 75 159 7.0 18.0 0.00 0.00 0.00 93 1010.0
20260506071807 75 159 7.0 18.0 0.00 0.00 0.00 93 1010.0
20260506070820 75 169 8.0 19.0 0.00 0.00 0.00 93 1010.0
20260506070316 75 191 7.0 19.0 0.00 0.00 0.00 93 1010.0
20260506062309 75 161 7.0 14.0 0.00 0.00 0.00 93 1009.6
20260506061809 75 174 7.0 14.0 0.00 0.00 0.00 93 1009.5
20260506061308 75 176 7.0 14.0 0.00 0.00 0.00 93 1009.5
20260506061254 75 171 7.0 17.0 0.00 0.00 0.00 93 1009.5
20260506060528 75 137 7.0 17.0 0.00 0.00 0.00 93 1009.4
20260506051254 75 166 7.0 17.0 0.00 0.00 0.00 93 1009.6
20260506050755 76 165 6.0 17.0 0.00 0.00 0.00 93 1009.8
20260506050255 75 173 5.0 11.0 0.00 0.00 0.00 93 1009.9
20260506044752 75 201 5.0 12.0 0.00 0.00 0.00 92 1009.5
20260506044252 75 190 5.0 14.0 0.00 0.00 0.00 92 1009.5
20260506043752 76 184 5.0 14.0 0.00 0.00 0.00 92 1009.6
20260506043252 76 197 5.0 11.0 0.00 0.00 0.00 92 1009.5
20260506043017 76 167 6.0 12.0 0.00 0.00 0.00 92 1009.6
20260506042531 76 160 6.0 12.0 0.00 0.00 0.00 92 1009.8
20260506042029 76 131 6.0 11.0 0.00 0.00 0.00 91 1009.3
20260506042003 76 157 6.0 11.0 0.00 0.00 0.00 91 1009.5
20260506040745 76 138 5.0 11.0 0.00 0.00 0.00 91 1009.4
20260506040242 76 198 5.0 11.0 0.00 0.00 0.00 91 1009.3
20260506035739 76 194 5.0 11.0 0.00 0.00 0.00 91 1009.3
20260506035239 76 165 5.0 10.0 0.00 0.00 0.00 90 1009.1
20260506034740 76 167 3.0 7.0 0.00 0.00 0.00 90 1009.3
20260506034240 76 155 3.0 7.0 0.00 0.00 0.00 89 1009.3
20260506033739 76 150 3.0 7.0 0.00 0.00 0.00 89 1009.1
20260506033238 76 155 3.0 9.0 0.00 0.00 0.00 89 1009.1
20260506032737 76 184 3.0 9.0 0.00 0.00 0.00 89 1009.0
20260506032459 77 155 3.0 10.0 0.00 0.00 0.00 88 1009.1
20260506031735 77 169 3.0 10.0 0.00 0.00 0.00 88 1009.0
20260506031233 77 175 4.0 8.0 0.00 0.00 0.00 88 1009.0
20260506030734 77 165 4.0 8.0 0.00 0.00 0.00 88 1008.9
20260506030233 77 155 4.0 10.0 0.00 0.00 0.00 88 1008.8
20260506025734 77 169 4.0 10.0 0.00 0.00 0.00 88 1008.8
20260506025233 77 161 4.0 7.0 0.00 0.00 0.00 88 1008.7
20260506025000 77 186 4.0 7.0 0.00 0.00 0.00 87 1008.7
20260506024234 77 165 4.0 7.0 0.00 0.00 0.00 87 1008.7
20260506023736 77 147 4.0 8.0 0.00 0.00 0.00 87 1008.6
20260506023506 78 178 4.0 8.0 0.00 0.00 0.00 87 1008.4
20260506022734 78 150 4.0 8.0 0.00 0.00 0.00 87 1008.4
20260506022234 78 160 4.0 8.0 0.00 0.00 0.00 87 1008.4
20260506021733 78 156 4.0 8.0 0.00 0.00 0.00 86 1008.3
20260506021231 78 134 3.0 8.0 0.00 0.00 0.00 86 1008.1
20260506020729 78 176 3.0 7.0 0.00 0.00 0.00 86 1008.2
20260506020228 78 154 3.0 7.0 0.00 0.00 0.00 85 1008.1
20260506015726 78 153 3.0 6.0 0.00 0.00 0.00 85 1008.1
20260506015225 78 152 2.0 6.0 0.00 0.00 0.00 84 1008.0
20260506014723 78 155 2.0 6.0 0.00 0.00 0.00 84 1007.9
20260506014225 79 163 3.0 7.0 0.00 0.00 0.00 84 1008.0
20260506013723 79 165 4.0 8.0 0.00 0.00 0.00 83 1007.8
20260506013224 79 146 4.0 9.0 0.00 0.00 0.00 83 1007.7
20260506013215 79 164 4.0 9.0 0.00 0.00 0.00 83 1007.7
20260506012221 79 150 4.0 10.0 0.00 0.00 0.00 82 1007.6
20260506011721 80 168 4.0 10.0 0.00 0.00 0.00 82 1007.6
20260506011442 80 163 5.0 11.0 0.00 0.00 0.00 82 1007.5
20260506010947 80 158 5.0 11.0 0.00 0.00 0.00 81 1007.5
20260506010213 80 159 4.0 11.0 0.00 0.00 0.00 81 1007.4
20260506005713 80 168 4.0 11.0 0.00 0.00 0.00 80 1007.4
20260506005213 81 155 5.0 10.0 0.00 0.00 0.00 80 1007.4
20260506004713 81 211 5.0 12.0 0.00 0.00 0.00 80 1007.4
20260506004213 81 136 5.0 14.0 0.00 0.00 0.00 79 1007.5
20260506003713 81 163 5.0 14.0 0.00 0.00 0.00 79 1007.5
20260506003449 82 144 6.0 14.0 0.00 0.00 0.00 79 1007.6
20260506002937 82 163 7.0 14.0 0.00 0.00 0.00 78 1007.6
20260506002211 82 0 5.0 12.0 0.00 0.00 0.00 78 1007.5
20260506001942 82 158 4.0 10.0 0.00 0.00 0.00 79 1007.6
20260506001208 82 193 5.0 13.0 0.00 0.00 0.00 79 1007.6
20260506000706 82 140 5.0 13.0 0.00 0.00 0.00 78 1007.6
20260506000440 82 180 6.0 14.0 0.00 0.00 0.00 79 1007.6
20260505235707 82 160 6.0 14.0 0.00 0.00 0.00 78 1007.6
20260505235205 82 156 5.0 12.0 0.00 0.00 0.00 77 1007.7
20260505234706 83 157 4.0 11.0 0.00 0.00 0.00 77 1007.6
20260505234205 83 155 5.0 11.0 0.00 0.00 0.00 77 1007.5
20260505233703 83 175 5.0 12.0 0.00 0.00 0.00 77 1007.5
20260505233157 83 197 7.0 15.0 0.00 0.00 0.00 76 1007.4
20260505232926 83 155 6.0 15.0 0.00 0.00 0.00 76 1007.4
20260505232144 83 155 6.0 12.0 0.00 0.00 0.00 76 1007.4
20260505231639 83 159 6.0 12.0 0.00 0.00 0.00 76 1007.3
20260505231134 83 186 6.0 13.0 0.00 0.00 0.00 76 1007.2
20260505230902 83 211 5.0 13.0 0.00 0.00 0.00 76 1007.3
20260505230402 83 160 6.0 12.0 0.00 0.00 0.00 76 1007.2
20260505225635 84 206 7.0 12.0 0.00 0.00 0.00 75 1007.2
20260505225135 84 176 6.0 12.0 0.00 0.00 0.00 75 1007.1
20260505224634 84 151 6.0 12.0 0.00 0.00 0.00 75 1007.1
20260505224135 84 170 6.0 12.0 0.00 0.00 0.00 75 1007.1
20260505223900 85 120 6.0 12.0 0.00 0.00 0.00 74 1007.1
20260505223136 85 201 6.0 12.0 0.00 0.00 0.00 74 1007.2
20260505222634 85 164 6.0 13.0 0.00 0.00 0.00 74 1007.1
20260505222135 85 157 8.0 14.0 0.00 0.00 0.00 74 1007.1
20260505221635 85 154 8.0 14.0 0.00 0.00 0.00 74 1007.0
20260505221134 85 173 7.0 14.0 0.00 0.00 0.00 74 1006.9
20260505220634 85 177 7.0 16.0 0.00 0.00 0.00 73 1006.9
20260505220135 85 121 8.0 16.0 0.00 0.00 0.00 74 1007.0
20260505215635 85 178 8.0 14.0 0.00 0.00 0.00 73 1007.0
20260505215133 86 146 7.0 14.0 0.00 0.00 0.00 72 1007.3
20260505214634 86 126 7.0 16.0 0.00 0.00 0.00 72 1007.2
20260505214625 86 181 7.0 16.0 0.00 0.00 0.00 72 1007.3
20260505213621 86 184 6.0 15.0 0.00 0.00 0.00 72 1007.2
20260505213117 87 197 7.0 15.0 0.00 0.00 0.00 71 1007.2
20260505212617 87 151 7.0 13.0 0.00 0.00 0.00 71 1007.1
20260505212351 87 180 7.0 15.0 0.00 0.00 0.00 72 1007.4
20260505211617 87 179 8.0 15.0 0.00 0.00 0.00 71 1007.4
20260505211117 87 137 8.0 15.0 0.00 0.00 0.00 72 1007.4
20260505210617 87 174 8.0 15.0 0.00 0.00 0.00 71 1007.5
20260505210117 87 142 8.0 14.0 0.00 0.00 0.00 73 1007.8
20260505205617 86 157 8.0 17.0 0.00 0.00 0.00 73 1007.8
20260505205117 86 180 8.0 17.0 0.00 0.00 0.00 74 1007.8
20260505204617 86 176 7.0 13.0 0.00 0.00 0.00 72 1007.8
20260505204117 86 144 6.0 12.0 0.00 0.00 0.00 73 1008.0
20260505203617 86 194 6.0 16.0 0.00 0.00 0.00 73 1008.0
20260505203117 86 182 6.0 16.0 0.00 0.00 0.00 72 1007.9
20260505202617 85 226 6.0 16.0 0.00 0.00 0.00 72 1008.0
20260505202117 85 166 8.0 18.0 0.00 0.00 0.00 74 1008.0
20260505201624 85 182 7.0 18.0 0.00 0.00 0.00 72 1008.2
20260505201118 85 159 7.0 17.0 0.00 0.00 0.00 74 1008.3
20260505200620 85 151 8.0 17.0 0.00 0.00 0.00 74 1008.3
20260505200114 85 156 7.0 17.0 0.00 0.00 0.00 74 1008.4
20260505195614 85 244 8.0 17.0 0.00 0.00 0.00 73 1008.4
20260505195114 85 195 7.0 17.0 0.00 0.00 0.00 73 1008.4
20260505194615 85 182 7.0 17.0 0.00 0.00 0.00 74 1008.4
20260505194114 85 204 7.0 15.0 0.00 0.00 0.00 74 1008.5
20260505193615 84 193 7.0 15.0 0.00 0.00 0.00 75 1008.5
20260505193118 84 135 7.0 15.0 0.00 0.00 0.00 76 1008.6
20260505193109 83 155 7.0 15.0 0.00 0.00 0.00 75 1008.7
20260505192115 83 165 6.0 16.0 0.00 0.00 0.00 75 1008.7
20260505191615 83 199 6.0 16.0 0.00 0.00 0.00 75 1008.7
20260505191115 83 239 8.0 19.0 0.00 0.00 0.00 74 1008.8
20260505190615 83 184 8.0 19.0 0.00 0.00 0.00 76 1008.8
20260505190115 83 176 7.0 14.0 0.00 0.00 0.00 75 1008.9
20260505185615 82 184 7.0 14.0 0.00 0.00 0.00 75 1009.0
20260505185115 82 196 6.0 14.0 0.00 0.00 0.00 77 1009.1
20260505184615 82 237 6.0 14.0 0.00 0.00 0.00 77 1009.3
20260505184114 81 199 7.0 14.0 0.00 0.00 0.00 77 1009.4
20260505183614 81 188 6.0 13.0 0.00 0.00 0.00 78 1009.4
20260505183340 80 202 6.0 13.0 0.00 0.00 0.00 78 1009.6
20260505182614 81 184 7.0 16.0 0.00 0.00 0.00 79 1009.6
20260505182115 80 188 8.0 16.0 0.00 0.00 0.00 79 1009.9
20260505181614 80 221 7.0 13.0 0.00 0.00 0.00 80 1009.9
20260505181117 80 153 7.0 13.0 0.00 0.00 0.00 79 1009.9
20260505180615 80 205 7.0 14.0 0.00 0.00 0.00 79 1009.9
20260505180117 80 146 7.0 16.0 0.00 0.00 0.00 80 1009.9
20260505175615 79 202 7.0 16.0 0.00 0.00 0.00 81 1010.0
20260505175114 79 198 7.0 14.0 0.00 0.00 0.00 82 1010.0
20260505174614 78 225 6.0 14.0 0.00 0.00 0.00 82 1010.1
20260505174340 77 199 6.0 14.0 0.00 0.00 0.00 84 1010.2
20260505173839 77 204 6.0 15.0 0.00 0.00 0.00 84 1010.3
20260505173114 76 189 6.0 15.0 0.00 0.00 0.00 85 1010.3
20260505172612 76 188 6.0 12.0 0.00 0.00 0.00 85 1010.3
20260505172559 76 198 6.0 14.0 0.00 0.00 0.00 85 1010.3
20260505171613 76 243 5.0 14.0 0.00 0.00 0.00 85 1010.4
20260505171112 76 251 5.0 12.0 0.00 0.00 0.00 86 1010.4
20260505170613 75 169 6.0 12.0 0.00 0.00 0.00 86 1010.4
20260505170110 75 217 6.0 15.0 0.00 0.00 0.00 87 1010.4
20260505165611 75 185 6.0 15.0 0.00 0.00 0.00 87 1010.4
20260505165109 75 178 6.0 14.0 0.00 0.00 0.00 87 1010.3
20260505164609 74 213 7.0 14.0 0.00 0.00 0.00 88 1010.4
20260505164109 74 190 6.0 13.0 0.00 0.00 0.00 88 1010.2
20260505163609 74 232 5.0 13.0 0.00 0.00 0.00 89 1010.3
20260505163107 74 158 6.0 13.0 0.00 0.00 0.00 89 1010.4
20260505162608 74 228 6.0 13.0 0.00 0.00 0.00 89 1010.3
20260505162327 74 200 5.0 13.0 0.00 0.00 0.00 89 1010.4
20260505161605 73 236 4.0 12.0 0.00 0.00 0.00 89 1010.4
20260505161106 73 254 5.0 14.0 0.00 0.00 0.00 90 1010.4
20260505160606 73 228 6.0 14.0 0.00 0.00 0.00 90 1010.4
20260505160105 73 215 7.0 16.0 0.00 0.00 0.00 90 1010.3
20260505153106 72 234 5.0 11.0 0.00 0.00 0.00 91 1010.3
20260505152832 72 197 5.0 13.0 0.00 0.00 0.00 91 1010.2
20260505152106 72 165 5.0 13.0 0.00 0.00 0.00 91 1010.2
20260505151607 72 231 6.0 13.0 0.00 0.00 0.00 91 1010.2
20260505151106 72 200 7.0 13.0 0.00 0.00 0.00 91 1010.2
20260505150604 72 198 6.0 13.0 0.00 0.00 0.00 91 1010.2
20260505140536 71 194 7.0 16.0 0.00 0.00 0.00 92 1009.5
20260505130253 71 173 6.0 13.0 0.00 0.00 0.00 92 1009.1
20260505125014 71 200 6.0 14.0 0.00 0.00 0.00 92 1009.0
20260505124513 71 214 6.0 14.0 0.00 0.00 0.00 92 1009.0
20260505124459 71 237 6.0 12.0 0.00 0.00 0.00 92 1009.0